This is the latest recevied weather packets stored in our database for station/object KC5L-7. If no packets are shown the sender has not sent any weather packets the latest 10 day(s).
| Time | Temp. | Humidity | Pressure | Rain* | Wind** | Luminosity | Snow |
|---|---|---|---|---|---|---|---|
| 1777903880 | 19.44° C | 77% | 1013.5 hPa | 0 mm | - | - | - |
| 1777903280 | 18.89° C | 77% | 1013.8 hPa | 0 mm | - | - | - |
| 1777902680 | 18.89° C | 77% | 1013.9 hPa | 0 mm | - | - | - |
| 1777902080 | 18.89° C | 77% | 1013.9 hPa | 0 mm | - | - | - |
| 1777901481 | 18.33° C | 77% | 1013.8 hPa | 0 mm | - | - | - |
| 1777900880 | 18.33° C | 77% | 1013.8 hPa | 0 mm | - | - | - |
| 1777899680 | 17.78° C | 79% | 1013.8 hPa | 0 mm | - | - | - |
| 1777899080 | 17.78° C | 78% | 1013.8 hPa | 0 mm | - | - | - |
| 1777898480 | 17.78° C | 79% | 1013.7 hPa | 0 mm | - | - | - |
| 1777897880 | 17.78° C | 77% | 1013.7 hPa | 0 mm | - | - | - |
| 1777897280 | 17.22° C | 77% | 1013.5 hPa | 0 mm | - | - | - |
| 1777896680 | 17.22° C | 77% | 1013.5 hPa | 0 mm | - | - | - |
| 1777896080 | 17.22° C | 77% | 1013.6 hPa | 0 mm | - | - | - |
| 1777895481 | 17.22° C | 76% | 1013.4 hPa | 0 mm | - | - | - |
| 1777893680 | 17.78° C | 76% | 1013.1 hPa | 0 mm | - | - | - |
| 1777893080 | 17.78° C | 74% | 1013.1 hPa | 0 mm | - | - | - |
| 1777892480 | 17.78° C | 74% | 1013.3 hPa | 0 mm | - | - | - |
| 1777891880 | 17.78° C | 73% | 1013.4 hPa | 0 mm | - | - | - |
| 1777891280 | 17.78° C | 73% | 1013.2 hPa | 0 mm | - | - | - |
| 1777890680 | 18.33° C | 73% | 1013.4 hPa | 0 mm | - | - | - |
| 1777888880 | 18.33° C | 71% | 1013.2 hPa | 0 mm | - | - | - |
| 1777888280 | 18.33° C | 71% | 1013.6 hPa | 0 mm | - | - | - |
| 1777887680 | 18.33° C | 71% | 1013.5 hPa | 0 mm | - | - | - |
| 1777887080 | 18.33° C | 71% | 1013.4 hPa | 0 mm | - | - | - |
| 1777886480 | 18.33° C | 70% | 1013.6 hPa | 0 mm | - | - | - |
* Rain latest hour (hover to see other rain measurements)
** Current wind speed in m/s (hover to see current wind gust speed)